TimeEST,TemperatureF,Dew PointF,Humidity,Sea Level PressureIn,VisibilityMPH,Wind Direction,Wind SpeedMPH,Gust SpeedMPH,PrecipitationIn,Events,Conditions,WindDirDegrees,DateUTC
12:53 AM,28.0,21.9,78,30.35,10.0,Calm,Calm,-,N/A,,Clear,0,2012-12-06 05:53:00
1:53 AM,28.0,21.9,78,30.35,10.0,Calm,Calm,-,N/A,,Clear,0,2012-12-06 06:53:00
2:53 AM,27.0,23.0,85,30.35,10.0,Calm,Calm,-,N/A,,Clear,0,2012-12-06 07:53:00
3:53 AM,26.1,23.0,88,30.33,10.0,NE,3.5,-,N/A,,Clear,40,2012-12-06 08:53:00
4:53 AM,26.1,24.1,92,30.32,10.0,Calm,Calm,-,N/A,,Clear,0,2012-12-06 09:53:00
5:53 AM,25.0,23.0,92,30.31,10.0,Calm,Calm,-,N/A,,Clear,0,2012-12-06 10:53:00
6:53 AM,24.1,21.9,91,30.31,10.0,Calm,Calm,-,N/A,,Clear,0,2012-12-06 11:53:00
7:53 AM,25.0,21.9,88,30.30,10.0,North,3.5,-,N/A,,Clear,10,2012-12-06 12:53:00
8:53 AM,30.0,24.1,79,30.30,10.0,Calm,Calm,-,N/A,,Clear,0,2012-12-06 13:53:00
9:53 AM,36.0,25.0,64,30.27,10.0,ENE,5.8,-,N/A,,Clear,70,2012-12-06 14:53:00
10:53 AM,39.9,25.0,55,30.25,10.0,Calm,Calm,-,N/A,,Clear,0,2012-12-06 15:53:00
11:53 AM,46.0,24.1,42,30.20,10.0,ENE,3.5,-,N/A,,Clear,60,2012-12-06 16:53:00
12:53 PM,50.0,24.1,36,30.17,10.0,South,5.8,-,N/A,,Clear,170,2012-12-06 17:53:00
1:53 PM,53.1,25.0,34,30.14,10.0,Variable,3.5,-,N/A,,Clear,0,2012-12-06 18:53:00
2:53 PM,54.0,26.1,34,30.12,10.0,Calm,Calm,-,N/A,,Clear,0,2012-12-06 19:53:00
3:53 PM,53.1,26.1,35,30.12,10.0,East,3.5,-,N/A,,Clear,90,2012-12-06 20:53:00
4:53 PM,50.0,27.0,41,30.12,10.0,ESE,5.8,-,N/A,,Clear,110,2012-12-06 21:53:00
5:53 PM,48.0,28.0,46,30.11,10.0,SSE,4.6,-,N/A,,Clear,150,2012-12-06 22:53:00
6:53 PM,48.0,28.0,46,30.11,10.0,SSE,3.5,-,N/A,,Scattered Clouds,160,2012-12-06 23:53:00
7:53 PM,46.9,28.9,50,30.11,10.0,SSE,4.6,-,N/A,,Partly Cloudy,160,2012-12-07 00:53:00
8:53 PM,46.0,30.0,54,30.11,10.0,SSE,6.9,-,N/A,,Partly Cloudy,150,2012-12-07 01:53:00
9:53 PM,48.9,32.0,52,30.09,10.0,SSE,6.9,-,N/A,,Overcast,150,2012-12-07 02:53:00
10:53 PM,48.9,33.1,54,30.08,10.0,SSE,4.6,-,N/A,,Overcast,150,2012-12-07 03:53:00
11:53 PM,48.9,37.9,66,30.06,10.0,South,3.5,-,0.00,,Overcast,170,2012-12-07 04:53:00